EHI
0 0 0 0 0 0 0 0 0 0 0 0 0 0 0 0 0 0 0 0 0 0 0 0 0 0 0 0 0 0 0 0 0 0 0 0 0 0
0 0 0 0 0 0 0 0 0 0 0 0 0 0 0 0 0 0 0 0 0 0 0 0 0 0 0 0 0 0 0 0 0 0 0 0 0 0
0 0 0 0 0 0 0 0 0 0 0 0 0 0 0 0 0 0 0 0 0 0 0 0 0 0 0 0 0 0 0 0 0 0 0 0 0 0
0 0 0 0 0 0 0 0 0 0 0 0 0 0 0 0 0 0 0 0 0 0 0 0 0 0 0 0 0 0 0 0 0 0 0 0 0 0
0 0 0 0 0 0 0 0 0 0 0 0 0 0 0 0 0 0 0 0 0 0 0 0 0 0 0 0 0 0 0 0 0 0 0 0 0 0
0 0 0 0 0 0 0 0 0 0 0 0 0 0 0 0 0 0 0 0 0 0 0 0 0 0 0 0 0 0 0 0 0 0 0 0 0 0
0 0 0 0 0 0 0 0 0 0 0 0 0 0 0 0 0 0 0 0 0 0 0 0 0 0 0 0 0 0 0 0 0 0 0 0 0 0
0 0 0 0 0 0 0 0 0 0 0 0 0 0 0 0 0 0 0 0 0 0 0 0 0 0 0 0 0 0 0 0 0 0 0 0 0 0
0 0 0 0 0 0 0 0 0 0 0 0 0 0 0 0 0 0 0 0 0 0 0 0 0 0 0 0 0 0 0 0 0 0 0 0 0 0
0 0 0 0 0 0 0 0 0 0 0 0 0 0 0 0 0 0 0 0 0 0 0 0 0 0 0 0 0 0 0 0 0 0 0 0 0 0
0 0 0 0 0 0 0 0 0 0 0 0 0 0 0 0 0 0 0 0 0 0 0 0 0 0 0 0 0 0 0 0 0 0 0 0 0 0
0 0 0 0 0 0 0 0 0 0 0 0 0 0 0 0 0 0 0 0 0 0 0 0 0 0 0 0 0 0 0 0 0 0 0 0 0 0
0 0 0 0 0 0 0 0 0 0 0 0 0 0 0 0 0 0 0 0 0 0 0 0 0 0 0 0 0 0 0 0 0 0 0 0 0 0
0 0 0 0 0 0 0 0 0 0 0 0 0 0 0 0 0 0 0 0 0 0 0 0 0 0 0 0 0 0 0 0 0 0 0 0 0 0
0 0 0 0 0 0 0 0 0 0 0 0 0 0 0 0 0 0 0 0 0 0 0 0 0 0 0 0 0 0 0 0 0 0 0 0 0 0
0 0 0 0 0 0 0 0 0 0 0 0 0 0 0 0 0 0 0 0 0 0 0 0 0 0 0 0 0 0 0 0 0 0 0 0 0 0
0 0 0 0 0 0 0 0 0 0 0 0 0 0 0 0 0 0 0 0 0 0 0 0 0 0 0 0 0 0 0 0 0 0 0 0 0 0
0 0 0 0 0 0 0 0 0 0 0 0 0 0 0 0 0 0 0 0 0 0 0 0 0 0 0 0 0 0 0 0 0 0 0 0 0 0
0 0 0 0 0 0 0 0 0 0 0 0 0 0 0 0 0 0 0 0 0 0 0 0 0 0 0 0 0 0 0 0 0 0 0 0 0 0
0 0 0 0 0 0 0 0 0 0 0 0 0 0 0 0 0 0 0 0 0 0 0 0 0 0 0 0 0 0 0 0 0 0 0 0 0 0
0 0 0 0 0 0 0 0 0 0 0 0 0 0 0 0 0 0 0 0 0 0 0 0 0 0 0 0 0 0 0 0 0 0 0 0 0 0
0 0 0 0 0 0 0 0 0 0 0 0 0 0 0 0 0 0 0 0 0 0 0 0 0 0 0 0 0 0 0 0 0 0 0 0 0 0
0 0 0 0 0 0 0 0 0 0 0 0 0 0 0 0 0 0 0 0 0 0 0 0 0 0 0 0 0 0 0 0 0 0 0 0 0 0
Wind_Speed
2 2 1 1 1 1 1 2 2 2 3 2 0 0 0 0 1 1 1 2 3 3 4 4 4 4 4 5 6 6 6 6 7 7 8 8 8 8
1 1 1 0 1 1 1 1 1 2 3 2 1 1 1 1 1 1 1 3 3 4 4 4 4 5 5 5 5 6 6 7 7 8 8 9 8 8
1 1 1 1 1 1 1 1 1 1 2 3 2 1 2 1 1 1 1 1 2 4 4 4 4 5 5 5 6 7 7 7 7 8 8 8 8 8
1 1 2 1 1 1 1 1 1 1 2 3 2 2 2 2 1 2 2 2 1 4 4 5 5 5 5 6 6 7 7 7 7 7 7 7 8 8
2 2 2 1 2 1 1 1 1 2 1 2 2 2 1 2 1 2 2 2 2 3 4 4 4 5 5 6 6 7 7 6 6 6 7 7 7 8
1 2 2 2 2 2 2 2 1 1 1 2 2 2 2 2 1 1 2 2 2 3 2 3 4 5 6 6 6 6 6 6 6 7 6 6 6 6
2 2 3 3 4 3 3 2 2 2 2 2 3 2 2 2 2 1 2 2 3 2 1 2 2 2 3 5 5 6 6 6 6 6 6 6 6 7
3 2 2 3 4 5 6 5 4 3 3 3 3 3 3 3 2 2 2 2 3 1 1 3 2 2 2 2 5 7 7 6 6 6 6 6 6 7
2 2 2 3 3 2 3 4 5 6 6 4 4 5 4 3 2 3 2 3 4 3 2 4 2 3 3 3 7 7 7 6 6 6 6 6 7 7
3 3 3 3 3 2 2 2 3 3 4 4 4 4 3 3 3 4 3 3 3 2 2 3 3 3 3 3 6 6 6 7 7 7 7 7 7 7
3 3 3 3 5 5 3 3 3 3 4 5 5 5 5 6 4 2 2 3 4 3 2 2 2 3 3 3 3 5 6 7 8 8 8 8 8 7
2 3 4 5 6 6 3 3 3 3 3 3 3 4 3 4 5 3 3 3 3 3 2 2 2 1 3 2 2 2 3 6 8 8 8 7 7 4
2 2 3 6 6 6 5 3 5 4 2 2 2 2 2 2 2 2 2 3 3 3 2 1 1 1 2 3 3 2 2 2 3 4 5 7 7 5
3 2 3 5 6 7 5 5 6 4 2 2 2 2 2 2 2 2 3 3 3 4 3 3 3 3 3 3 4 3 2 2 2 3 3 6 7 8
2 4 5 6 5 4 4 5 4 2 2 3 3 3 2 2 2 2 2 2 3 3 3 3 4 3 3 4 4 3 3 3 3 3 3 4 4 4
2 3 5 5 4 4 3 3 2 2 2 3 2 2 2 2 2 2 3 2 2 3 3 3 4 4 4 5 4 5 3 3 3 3 4 4 4 3
2 1 1 1 1 1 1 1 1 1 2 2 2 2 3 3 3 2 2 2 3 3 3 3 3 3 4 4 4 5 4 4 4 4 4 5 5 4
3 2 2 2 2 1 1 1 2 2 2 2 2 3 3 3 3 2 2 3 3 3 3 2 2 2 3 4 5 5 4 4 4 4 4 5 6 4
2 1 2 2 2 1 1 2 2 2 2 2 3 3 3 3 3 3 3 3 3 3 3 2 2 3 4 5 4 4 4 4 3 4 4 5 6 6
1 1 1 1 1 1 2 2 2 1 2 2 2 2 2 3 3 3 3 3 4 3 3 3 3 4 6 5 4 4 5 4 4 5 5 4 5 7
1 1 2 2 1 1 1 2 2 2 2 2 2 2 2 3 3 3 4 6 5 4 4 5 5 6 3 2 3 4 4 6 6 5 4 4 4 4
1 1 1 1 1 2 2 2 2 2 2 2 2 3 3 3 3 4 4 4 4 4 5 4 3 3 3 4 5 5 4 4 5 7 8 7 4 4
1 1 1 1 1 1 2 2 2 2 2 2 3 3 3 3 3 3 4 4 4 4 4 4 3 3 3 4 4 4 5 4 3 4 4 7 10 11
Wind_Direction
202 203 204 204 204 215 199 184 184 242 266 243 217 287 298 307 280 252 258 276 290 298 304 311 311 312 313 314 311 306 300 298 297 297 297 298 297 300
217 202 212 222 205 209 210 226 201 212 255 277 281 287 280 295 301 296 276 293 288 287 288 299 308 307 308 305 305 306 304 300 294 293 293 292 293 296
292 242 254 235 217 226 222 224 231 211 251 285 302 307 303 288 305 312 305 274 275 288 287 296 304 306 305 303 303 303 300 297 296 296 295 294 294 294
257 253 261 254 238 240 229 232 232 230 227 264 284 285 297 280 286 299 305 301 291 295 285 288 293 297 300 301 303 302 299 295 295 295 294 296 297 296
236 242 252 239 251 254 247 245 255 268 249 242 268 284 297 294 297 299 292 301 297 291 288 286 292 297 299 304 307 304 298 294 292 292 294 294 295 297
248 241 239 232 230 236 241 239 242 251 249 242 257 276 288 290 254 253 291 298 299 303 295 299 295 296 296 300 303 306 301 294 294 294 296 299 299 300
240 239 236 234 245 245 245 226 218 228 231 238 243 256 255 265 258 236 258 286 288 277 290 291 292 287 289 295 299 303 305 302 300 300 300 301 300 299
242 244 243 244 243 252 254 249 233 223 225 233 244 242 250 253 268 259 247 268 277 271 281 285 276 273 274 269 288 296 297 299 300 302 303 303 303 301
236 240 258 253 255 239 259 264 262 252 240 234 235 243 245 244 242 252 249 251 258 259 265 272 267 269 275 285 293 293 295 299 301 299 297 296 296 296
238 230 234 242 250 245 244 255 263 258 252 245 231 240 248 241 234 241 244 261 274 274 246 259 261 264 287 283 281 283 292 296 296 293 293 293 294 295
259 246 238 231 242 252 243 242 257 264 271 256 255 259 264 268 265 254 251 261 273 271 248 245 268 287 280 272 274 284 295 297 294 290 289 290 292 295
259 254 251 248 246 250 236 223 244 251 247 256 257 264 263 259 266 247 235 249 266 267 241 233 261 293 292 277 276 294 292 291 294 295 292 289 290 293
248 243 245 252 257 260 258 239 245 255 241 238 242 242 243 241 243 239 231 234 241 249 248 242 255 253 256 284 286 277 274 284 286 288 290 291 292 293
247 245 244 257 265 268 269 258 257 264 234 235 244 241 233 234 237 238 239 240 239 244 246 237 244 239 246 266 278 281 278 276 275 277 277 290 294 295
243 248 255 262 272 273 268 267 268 245 226 238 247 250 241 233 232 245 255 254 261 260 254 245 244 247 242 254 268 275 284 281 261 259 267 272 271 279
261 251 262 268 277 274 267 272 260 237 234 239 245 254 247 237 239 243 250 251 258 272 271 259 249 241 246 255 257 266 262 259 265 264 268 271 270 264
245 229 214 225 239 241 259 270 256 254 261 251 245 248 253 253 250 244 248 247 247 258 269 273 262 252 247 247 254 255 258 262 260 261 269 275 269 262
262 226 219 218 229 239 246 256 255 252 251 250 251 251 252 255 256 249 245 245 254 260 259 259 270 286 287 267 238 247 252 260 266 265 262 270 275 267
260 227 225 226 227 229 242 254 262 263 255 251 254 254 252 254 255 250 245 247 254 256 255 248 244 245 265 276 275 235 246 262 271 271 264 262 270 274
243 228 231 231 230 236 242 248 256 265 270 267 264 262 258 253 251 249 247 244 252 260 261 250 238 237 243 255 265 270 251 250 253 263 273 275 275 281
262 253 243 238 239 243 252 255 255 256 259 265 270 271 267 262 259 256 252 255 255 254 256 256 253 258 253 247 265 272 265 260 259 255 260 273 282 282
261 263 263 251 242 239 244 249 257 258 257 261 264 265 266 265 263 260 256 253 254 253 259 266 259 250 234 242 257 267 277 285 284 278 266 256 251 255
264 260 258 262 263 254 247 247 249 252 254 256 259 264 265 265 264 262 261 258 258 263 268 271 270 252 247 246 253 264 270 278 283 287 280 279 273 272